Location: Unspecified
(43.4680°N, 87.1740°E)
Time: 20:35:56
(UTC+00:00)

Cosmos 2084 - Pass Details

Date: 17 April 2021
Orbit: 546 x 636 km, 62.8° (Epoch: 12 May)

Event Time Altitude Azimuth Distance (km) Brightness Sun altitude
Exits shadow 21:54:48 29° 227° (SW) 1,036 4.1 -15.6°
Maximum altitude 21:56:50 76° 308° (NW) 586 3.3 -15.3°
Drops below altitude 10° 22:01:05 10° 35° (NE) 1,890 7.1 -14.7°
Sets 22:03:22 0° 37° (NE) 2,808 8.3 -14.3°
